Flag for U.S.A. Weather past 2 weeks in St. Paul, Minnesota, U.S.A.

Now
59 °F

Overcast.


Feels Like: 55 °F
Forecast: 44 / 67 °F
Wind: 20 mph from South

Location: St. Paul Downtown Holman Field


UV Index: 3 (Moderate)

Visibility: 10 mi


Pressure: 30.06 "Hg

Humidity: 46%

Dew point: 38 °F

Location of St. PaulLocation

Historic Weather in St. Paul

°F

St. Paul temperature yesterday

Maximum temperature yesterday: 51 °F (at 2:53 PM)
Minimum temperature yesterday: 26 °F (at 3:53 AM)
Average temperature yesterday: 40 °F

Past Weeks' High & Low Weather Summary

 TemperatureHumidityPressure
High71 °F (Apr 9, 5:53 PM)100% (Apr 5, 7:53 AM)30.41 "Hg (Apr 5, 7:53 AM)
Low19 °F (Apr 15, 6:53 AM)16% (Apr 10, 2:53 PM)29.49 "Hg (Apr 9, 10:53 PM)
Average42 °F60%29.97 "Hg
* Reported Apr 4 12:53 PM — Apr 19 12:53 PM, St. Paul, Weather by CustomWeather, © 2014

Note: Actual official high and low records may vary slightly from our data, if they occured in-between our weather recording intervals... More about our weather records

Advertising

Historic Weather Conditions — Data for Previous 24 hours

 ConditionsComfort  
Time TempWeatherWind HumidityBarometerVisibility
12:53 PM
Apr 19
59 °FOvercast.20 mph46%30.06 "Hg10 mi
11:53 AM54 °FMostly cloudy.16 mph49%30.08 "Hg10 mi
10:53 AM50 °FOvercast.18 mph50%30.10 "Hg10 mi
9:53 AM47 °FOvercast.22 mph52%30.13 "Hg10 mi
8:53 AM45 °FSunny.20 mph56%30.15 "Hg10 mi
7:53 AM43 °FSunny.24 mph62%30.16 "Hg10 mi
6:53 AM43 °FClear.25 mph62%30.15 "Hg10 mi
5:53 AM44 °FClear.18 mph60%30.15 "Hg10 mi
4:53 AM45 °FOvercast.16 mph53%30.17 "Hg10 mi
3:53 AM45 °FPassing clouds.18 mph51%30.18 "Hg10 mi
2:53 AM44 °FClear.16 mph51%30.18 "Hg10 mi
1:53 AM44 °FClear.14 mph51%30.20 "Hg10 mi
12:53 AM44 °FClear.10 mph53%30.21 "Hg10 mi
11:53 PM
Apr 18
44 °FClear.12 mph51%30.22 "Hg10 mi
10:53 PM45 °FClear.7 mph48%30.24 "Hg10 mi
9:53 PM47 °FClear.8 mph44%30.24 "Hg10 mi
8:53 PM47 °FSunny.10 mph48%30.23 "Hg10 mi
7:53 PM49 °FSunny.10 mph44%30.25 "Hg10 mi
6:53 PM51 °FScattered clouds.16 mph39%30.26 "Hg10 mi
5:53 PM51 °FSunny.14 mph41%30.27 "Hg10 mi
4:53 PM51 °FPassing clouds.13 mph39%30.29 "Hg10 mi
3:53 PM51 °FSunny.9 mph41%30.32 "Hg10 mi
2:53 PM51 °FSunny.10 mph41%30.34 "Hg10 mi
1:53 PM49 °FSunny.8 mph43%30.36 "Hg10 mi
Weather by CustomWeather, © 2014

See weather overview